Previsão horária em Cerea

Hoje, 2 Agosto, Segunda-feira

Tempo Temperatura Precipitação Vento Pressão Humidade
00:00 +19°C° 0 mm 3 m/s 754 mmHg 73%
01:00 +19°C° 0 mm 2 m/s 755 mmHg 74%
02:00 +19°C° 0 mm 2 m/s 755 mmHg 75%
03:00 +18°C° 0 mm 2 m/s 755 mmHg 75%
04:00 +19°C° 0 mm 1 m/s 755 mmHg 75%
05:00 +20°C° 0 mm 1 m/s 756 mmHg 71%
06:00 +21°C° 0 mm 1 m/s 756 mmHg 68%
07:00 +22°C° 0 mm 1 m/s 757 mmHg 65%
08:00 +24°C° 0.1 mm 1 m/s 757 mmHg 59%
09:00 +26°C° 0.1 mm 1 m/s 758 mmHg 53%
10:00 +28°C° 0.1 mm 1 m/s 758 mmHg 47%
11:00 +28°C° 0.1 mm 1 m/s 758 mmHg 45%
12:00 +29°C° 0.1 mm 2 m/s 757 mmHg 43%
13:00 +30°C° 0.1 mm 2 m/s 757 mmHg 41%
14:00 +29°C° 0.1 mm 3 m/s 757 mmHg 43%
15:00 +29°C° 0.1 mm 3 m/s 757 mmHg 45%
16:00 +28°C° 0.1 mm 4 m/s 757 mmHg 47%
17:00 +27°C° 0.1 mm 4 m/s 757 mmHg 52%
18:00 +26°C° 0.1 mm 3 m/s 757 mmHg 57%
19:00 +25°C° 0.1 mm 3 m/s 757 mmHg 61%
20:00 +24°C° 0.2 mm 3 m/s 758 mmHg 68%
21:00 +23°C° 0.2 mm 2 m/s 758 mmHg 74%
22:00 +20°C° 0.2 mm 2 m/s 759 mmHg 81%
23:00 +20°C° 0.2 mm 2 m/s 759 mmHg 82%

Amanhã, 3 Agosto, Terça-feira

Tempo Temperatura Precipitação Vento Pressão Humidade
00:00 +19°C° 0.2 mm 2 m/s 759 mmHg 84%
01:00 +20°C° 0.2 mm 1 m/s 759 mmHg 85%
02:00 +19°C° 0.1 mm 1 m/s 759 mmHg 86%
03:00 +19°C° 0.1 mm 1 m/s 759 mmHg 86%
04:00 +19°C° 0.1 mm 1 m/s 759 mmHg 87%
05:00 +20°C° 0 mm 1 m/s 759 mmHg 84%
06:00 +20°C° 0 mm 1 m/s 760 mmHg 80%
07:00 +19°C° 0 mm 0 m/s 760 mmHg 77%
08:00 +21°C° 0.1 mm 0 m/s 760 mmHg 69%
09:00 +24°C° 0.1 mm 0 m/s 759 mmHg 60%
10:00 +26°C° 0.1 mm 0 m/s 759 mmHg 52%
11:00 +29°C° 0 mm 1 m/s 759 mmHg 46%
12:00 +30°C° 0 mm 1 m/s 758 mmHg 40%
13:00 +32°C° 0 mm 1 m/s 757 mmHg 34%
14:00 +32°C° 0 mm 2 m/s 757 mmHg 33%
15:00 +33°C° 0 mm 3 m/s 756 mmHg 33%
16:00 +33°C° 0 mm 3 m/s 756 mmHg 32%
17:00 +30°C° 0 mm 3 m/s 756 mmHg 39%
18:00 +29°C° 0 mm 2 m/s 756 mmHg 45%
19:00 +27°C° 0 mm 2 m/s 756 mmHg 51%
20:00 +26°C° 0.2 mm 2 m/s 757 mmHg 58%
21:00 +24°C° 0.2 mm 2 m/s 757 mmHg 65%
22:00 +22°C° 0.2 mm 1 m/s 758 mmHg 72%
23:00 +22°C° 0.1 mm 1 m/s 758 mmHg 74%

Depois de amanhã, 4 Agosto, Quarta-feira

Tempo Temperatura Precipitação Vento Pressão Humidade
00:00 +21°C° 0.1 mm 1 m/s 758 mmHg 77%
01:00 +21°C° 0.1 mm 1 m/s 758 mmHg 79%
02:00 +21°C° 0 mm 1 m/s 758 mmHg 81%
03:00 +21°C° 0 mm 1 m/s 758 mmHg 82%
04:00 +20°C° 0 mm 1 m/s 757 mmHg 84%
05:00 +21°C° 0 mm 1 m/s 758 mmHg 82%
06:00 +22°C° 0 mm 1 m/s 758 mmHg 79%
07:00 +21°C° 0 mm 2 m/s 758 mmHg 77%
08:00 +24°C° 0 mm 2 m/s 758 mmHg 70%
09:00 +25°C° 0 mm 2 m/s 758 mmHg 62%
10:00 +27°C° 0 mm 2 m/s 758 mmHg 54%
11:00 +28°C° 0 mm 2 m/s 757 mmHg 50%
12:00 +29°C° 0 mm 2 m/s 757 mmHg 46%
13:00 +31°C° 0 mm 2 m/s 756 mmHg 42%
14:00 +29°C° 0.1 mm 3 m/s 756 mmHg 50%
15:00 +27°C° 0.1 mm 4 m/s 756 mmHg 58%
16:00 +25°C° 0.1 mm 5 m/s 756 mmHg 67%
17:00 +23°C° 0.4 mm 4 m/s 756 mmHg 72%
18:00 +22°C° 0.4 mm 3 m/s 756 mmHg 78%
19:00 +21°C° 0.4 mm 2 m/s 757 mmHg 83%
20:00 +21°C° 0.1 mm 2 m/s 757 mmHg 85%
21:00 +20°C° 0.1 mm 2 m/s 757 mmHg 86%
22:00 +21°C° 0.1 mm 1 m/s 757 mmHg 87%
23:00 +20°C° 0.3 mm 1 m/s 757 mmHg 89%

5 Agosto, Quinta-feira

Tempo Temperatura Precipitação Vento Pressão Humidade
00:00 +20°C° 0.3 mm 1 m/s 757 mmHg 90%
01:00 +20°C° 0.3 mm 1 m/s 757 mmHg 92%
02:00 +20°C° 0.4 mm 1 m/s 756 mmHg 93%
03:00 +20°C° 0.4 mm 1 m/s 756 mmHg 93%
04:00 +19°C° 0.4 mm 1 m/s 756 mmHg 94%
05:00 +20°C° 0.6 mm 1 m/s 756 mmHg 92%
06:00 +20°C° 0.6 mm 1 m/s 756 mmHg 90%
07:00 +21°C° 0.6 mm 1 m/s 756 mmHg 89%
08:00 +23°C° 0 mm 1 m/s 756 mmHg 80%
09:00 +24°C° 0 mm 1 m/s 756 mmHg 71%
10:00 +26°C° 0 mm 1 m/s 756 mmHg 63%
11:00 +27°C° 0.1 mm 1 m/s 756 mmHg 58%
12:00 +28°C° 0.1 mm 2 m/s 755 mmHg 53%
13:00 +29°C° 0.1 mm 2 m/s 755 mmHg 48%
14:00 +30°C° 0.1 mm 2 m/s 754 mmHg 47%
15:00 +30°C° 0.1 mm 2 m/s 754 mmHg 46%
16:00 +30°C° 0.1 mm 3 m/s 754 mmHg 45%
17:00 +29°C° 0.1 mm 3 m/s 754 mmHg 52%
18:00 +27°C° 0.1 mm 3 m/s 754 mmHg 59%
19:00 +26°C° 0.1 mm 3 m/s 754 mmHg 66%
20:00 +24°C° 0.5 mm 3 m/s 754 mmHg 74%
21:00 +23°C° 0.5 mm 2 m/s 755 mmHg 83%
22:00 +20°C° 0.5 mm 2 m/s 755 mmHg 91%
23:00 +20°C° 0.1 mm 2 m/s 755 mmHg 91%

6 Agosto, Sexta-feira

Tempo Temperatura Precipitação Vento Pressão Humidade
00:00 +20°C° 0.1 mm 2 m/s 755 mmHg 90%
01:00 +20°C° 0.1 mm 1 m/s 755 mmHg 90%
02:00 +20°C° 0 mm 1 m/s 755 mmHg 90%
03:00 +20°C° 0 mm 1 m/s 755 mmHg 90%
04:00 +18°C° 0 mm 0 m/s 755 mmHg 89%
05:00 +19°C° 0 mm 0 m/s 755 mmHg 87%
06:00 +19°C° 0 mm 0 m/s 756 mmHg 84%
07:00 +20°C° 0 mm 0 m/s 756 mmHg 82%
08:00 +24°C° 0 mm 1 m/s 756 mmHg 74%
09:00 +26°C° 0 mm 1 m/s 756 mmHg 66%
10:00 +28°C° 0 mm 1 m/s 756 mmHg 58%
11:00 +29°C° 0 mm 1 m/s 756 mmHg 52%
12:00 +30°C° 0 mm 1 m/s 756 mmHg 46%
13:00 +32°C° 0 mm 1 m/s 755 mmHg 41%
14:00 +32°C° 0 mm 2 m/s 755 mmHg 39%
15:00 +32°C° 0 mm 2 m/s 755 mmHg 38%
16:00 +34°C° 0 mm 2 m/s 755 mmHg 37%
17:00 +31°C° 0 mm 3 m/s 755 mmHg 43%
18:00 +30°C° 0 mm 3 m/s 755 mmHg 49%
19:00 +28°C° 0 mm 3 m/s 755 mmHg 54%
20:00 +27°C° 0 mm 3 m/s 755 mmHg 59%
21:00 +26°C° 0 mm 3 m/s 756 mmHg 63%
22:00 +25°C° 0 mm 3 m/s 756 mmHg 67%
23:00 +24°C° 0 mm 2 m/s 756 mmHg 69%

7 Agosto, Sábado

Tempo Temperatura Precipitação Vento Pressão Humidade
00:00 +24°C° 0 mm 2 m/s 756 mmHg 70%
01:00 +24°C° 0 mm 2 m/s 756 mmHg 72%
02:00 +23°C° 0 mm 2 m/s 756 mmHg 74%
03:00 +23°C° 0 mm 2 m/s 756 mmHg 75%
04:00 +21°C° 0 mm 2 m/s 756 mmHg 77%
05:00 +23°C° 0 mm 2 m/s 756 mmHg 74%
06:00 +24°C° 0 mm 2 m/s 757 mmHg 71%
07:00 +25°C° 0 mm 2 m/s 757 mmHg 68%
08:00 +26°C° 0 mm 2 m/s 757 mmHg 62%
09:00 +28°C° 0 mm 2 m/s 757 mmHg 56%
10:00 +30°C° 0 mm 2 m/s 757 mmHg 49%
11:00 +31°C° 0 mm 2 m/s 756 mmHg 45%
12:00 +34°C° 0 mm 3 m/s 756 mmHg 41%
13:00 +35°C° 0 mm 3 m/s 755 mmHg 37%
14:00 +35°C° 0 mm 3 m/s 755 mmHg 37%
15:00 +35°C° 0 mm 3 m/s 755 mmHg 37%
16:00 +35°C° 0 mm 3 m/s 755 mmHg 37%
17:00 +33°C° 0 mm 4 m/s 755 mmHg 43%
18:00 +32°C° 0 mm 4 m/s 755 mmHg 49%
19:00 +29°C° 0 mm 5 m/s 754 mmHg 56%
20:00 +28°C° 0 mm 4 m/s 755 mmHg 61%
21:00 +27°C° 0 mm 4 m/s 755 mmHg 66%
22:00 +25°C° 0 mm 3 m/s 755 mmHg 72%
23:00 +25°C° 0 mm 3 m/s 755 mmHg 75%
Mostrar mais

Necessitamos do seu Consentimento

A Meteoprog e os seus Fornecedores de Serviços podem armazenar e aceder a dados pessoais como cookies, identificadores do dispositivo ou outras tecnologias semelhantes existentes no seu dispositivo e processar estes dados para personalizar conteúdos e anúncios, assim como funcionalidades nas redes sociais e análise de tráfego.

  • Armazenar e/ou aceder a informações no seu dispositivo

    Os cookies, identificadores do dispositivo ou outras informações podem ser armazenados ou acedidos no seu dispositivo, para os fins acima indicados.

  • Anúncios e conteúdos personalizados, medição de anúncios e conteúdos, dados sobre o público-alvo e desenvolvimento de produtos

    Os anúncios e os conteúdos podem ser personalizados com base num perfil. Podem ser adicionados dados adicionais para uma maior personalização dos anúncios e dos conteúdos. A eficácia dos anúncios e dos conteúdos pode ser medida. Podem ser obtidas informações sobre o público que visualizou os anúncios e os conteúdos. Estes dados podem ser usados para desenvolver ou melhorar sistemas, softwares ou a experiência do utilizador.

Ao clicar em "Eu concordo”, permitirá o uso de cookies, identificadores do dispositivo e web beacons mencionados ou outras tecnologias semelhantes. As configurações do navegador do seu dispositivo podem ser alteradas.

Para certos fins, podem ser invocados interesses legítimos ao invés de consentimento. Pode ler mais informação sobre este assunto na nossa Política de Privacidade e Cookies.